User: anonymous   Login
Location: Unspecified
(0.0000°N, 0.0000°E)
Time: 01:08:42
(UTC+00:00)
Language:

ONEWEB-0026 - Orbit

View from above orbital plane
View from above orbital plane
View from above satellite
View from above satellite

Ground track
Ground track

The orbit is defined by the following mean orbital elements,

1 45139U          26145.42213139 +.00000000 +00000-0 +14062-2 0 00003
2 45139  87.8915  25.5980 0001651  83.1396 276.9920 13.11415953    02
Epoch (UTC): 25 May 2026 10:07:52
Eccentricity: 0.0001651
inclination: 87.8915°
perigee height: 1216 km
apogee height: 1219 km
right ascension of ascending node: 25.5980°
argument of perigee: 83.1396°
revolutions per day: 13.11415953
mean anomaly at epoch: 276.9920°

The dashed part of the orbit path shows where the satellite is in the earth's shadow,  

DLR